Time,TemperatureF,DewpointF,PressureIn,WindDirection,WindDirectionDegrees,WindSpeedMPH,WindSpeedGustMPH,Humidity,HourlyPrecipIn,Conditions,Clouds,dailyrainin,SoftwareType,DateUTC
2013-04-15 00:00:00,55.2,45.3,29.85,South,180,1.9,3.0,69,0.00,,,0.00,WUHU216TE923,2013-04-15 04:00:00,
2013-04-15 00:05:00,55.2,45.3,29.86,South,180,1.9,2.8,69,0.00,,,0.00,WUHU216TE923,2013-04-15 04:05:00,
2013-04-15 00:10:00,55.2,45.3,29.86,SE,135,1.8,2.4,69,0.00,,,0.00,WUHU216TE923,2013-04-15 04:10:00,
2013-04-15 00:15:00,55.2,45.3,29.86,SE,135,1.8,2.3,69,0.00,,,0.00,WUHU216TE923,2013-04-15 04:15:00,
2013-04-15 00:20:00,55.4,45.5,29.86,WSW,248,1.0,2.3,69,0.00,,,0.00,WUHU216TE923,2013-04-15 04:20:00,
2013-04-15 00:25:00,55.2,45.7,29.86,ESE,113,0.8,1.5,70,0.00,,,0.00,WUHU216TE923,2013-04-15 04:25:00,
2013-04-15 00:30:00,55.4,45.9,29.86,WSW,248,0.8,1.2,70,0.00,,,0.00,WUHU216TE923,2013-04-15 04:30:00,
2013-04-15 00:35:00,55.4,45.9,29.86,SSE,158,0.7,1.9,70,0.00,,,0.00,WUHU216TE923,2013-04-15 04:35:00,
2013-04-15 00:40:00,55.4,45.9,29.86,SSE,158,0.7,1.9,70,0.00,,,0.00,WUHU216TE923,2013-04-15 04:40:00,
2013-04-15 00:45:00,55.4,45.9,29.86,NW,315,0.8,1.6,70,0.00,,,0.00,WUHU216TE923,2013-04-15 04:45:00,
2013-04-15 00:50:00,55.6,46.5,29.86,ENE,68,0.9,1.6,71,0.00,,,0.00,WUHU216TE923,2013-04-15 04:50:00,
2013-04-15 00:55:00,55.6,46.5,29.86,East,90,0.9,1.6,71,0.00,,,0.00,WUHU216TE923,2013-04-15 04:55:00,
2013-04-15 01:00:00,55.6,46.1,29.86,SW,225,0.4,1.0,70,0.00,,,0.00,WUHU216TE923,2013-04-15 05:00:00,
2013-04-15 01:05:00,55.6,46.1,29.86,SW,225,0.1,0.4,70,0.00,,,0.00,WUHU216TE923,2013-04-15 05:05:00,
2013-04-15 01:10:00,55.4,46.3,29.86,ESE,113,0.0,0.1,71,0.00,,,0.00,WUHU216TE923,2013-04-15 05:10:00,
2013-04-15 01:15:00,55.4,46.6,29.86,South,180,0.2,0.2,72,0.00,,,0.00,WUHU216TE923,2013-04-15 05:15:00,
2013-04-15 01:20:00,55.4,46.6,29.86,SSE,158,0.4,1.1,72,0.00,,,0.00,WUHU216TE923,2013-04-15 05:20:00,
2013-04-15 01:25:00,55.4,46.6,29.86,West,270,0.3,1.1,72,0.00,,,0.00,WUHU216TE923,2013-04-15 05:25:00,
2013-04-15 01:30:00,55.6,46.8,29.86,NNE,23,0.5,0.5,72,0.00,,,0.00,WUHU216TE923,2013-04-15 05:30:00,
2013-04-15 01:35:00,55.8,47.4,29.86,ENE,68,0.4,0.5,73,0.00,,,0.00,WUHU216TE923,2013-04-15 05:35:00,
2013-04-15 01:40:00,55.8,47.4,29.86,NE,45,0.1,1.1,73,0.00,,,0.00,WUHU216TE923,2013-04-15 05:40:00,
2013-04-15 01:45:00,55.6,47.5,29.86,ENE,68,0.5,1.1,74,0.00,,,0.00,WUHU216TE923,2013-04-15 05:45:00,
2013-04-15 01:50:00,55.8,47.7,29.86,ENE,68,0.6,0.6,74,0.00,,,0.00,WUHU216TE923,2013-04-15 05:50:00,
2013-04-15 01:55:00,55.8,47.7,29.86,West,270,0.6,1.4,74,0.00,,,0.00,WUHU216TE923,2013-04-15 05:55:00,
2013-04-15 02:00:00,55.8,47.7,29.86,SSW,203,0.7,2.1,74,0.00,,,0.00,WUHU216TE923,2013-04-15 06:00:00,
2013-04-15 02:05:00,55.8,47.7,29.85,SE,135,0.8,2.1,74,0.00,,,0.00,WUHU216TE923,2013-04-15 06:05:00,
2013-04-15 02:10:00,55.8,47.4,29.85,West,270,0.9,2.0,73,0.00,,,0.00,WUHU216TE923,2013-04-15 06:10:00,
2013-04-15 02:15:00,55.8,47.4,29.85,SE,135,0.8,2.0,73,0.00,,,0.00,WUHU216TE923,2013-04-15 06:15:00,
2013-04-15 02:20:00,56.1,47.7,29.85,SW,225,1.2,1.6,73,0.00,,,0.00,WUHU216TE923,2013-04-15 06:20:00,
2013-04-15 02:25:00,56.1,47.7,29.85,East,90,1.2,1.2,73,0.00,,,0.00,WUHU216TE923,2013-04-15 06:25:00,
2013-04-15 02:30:00,55.9,47.1,29.85,SE,135,0.9,1.2,72,0.00,,,0.00,WUHU216TE923,2013-04-15 06:30:00,
2013-04-15 02:35:00,55.9,47.1,29.85,SE,135,0.8,0.9,72,0.00,,,0.00,WUHU216TE923,2013-04-15 06:35:00,
2013-04-15 02:40:00,55.9,47.1,29.85,SE,135,0.6,0.8,72,0.00,,,0.00,WUHU216TE923,2013-04-15 06:40:00,
2013-04-15 02:45:00,55.9,47.1,29.85,ESE,113,0.6,1.6,72,0.00,,,0.00,WUHU216TE923,2013-04-15 06:45:00,
2013-04-15 02:50:00,55.9,47.1,29.85,SE,135,0.7,2.8,72,0.00,,,0.00,WUHU216TE923,2013-04-15 06:50:00,
2013-04-15 02:55:00,55.9,47.1,29.85,SE,135,1.3,2.8,72,0.00,,,0.00,WUHU216TE923,2013-04-15 06:55:00,
2013-04-15 03:00:00,55.9,47.1,29.85,West,270,1.0,2.5,72,0.00,,,0.00,WUHU216TE923,2013-04-15 07:00:00,
2013-04-15 03:03:00,55.9,47.1,29.84,SE,135,0.4,1.0,72,0.00,,,0.00,WUHU216TE923,2013-04-15 07:03:00,
2013-04-15 03:05:00,55.9,47.1,29.84,SE,135,0.4,1.0,72,0.00,,,0.00,WUHU216TE923,2013-04-15 07:05:00,
2013-04-15 03:09:00,55.9,47.1,29.84,ESE,113,0.1,0.4,72,0.00,,,0.00,WUHU216TE923,2013-04-15 07:09:00,
2013-04-15 03:13:00,55.9,47.1,29.84,ESE,113,0.1,0.1,72,0.00,,,0.00,WUHU216TE923,2013-04-15 07:13:00,
2013-04-15 03:23:00,55.9,47.1,29.85,SE,135,0.3,1.5,72,0.00,,,0.00,WUHU216TE923,2013-04-15 07:23:00,
2013-04-15 03:29:00,56.1,47.3,29.85,South,180,0.3,1.5,72,0.00,,,0.00,WUHU216TE923,2013-04-15 07:29:00,
2013-04-15 03:41:00,56.1,47.3,29.85,South,180,0.7,2.1,72,0.00,,,0.00,WUHU216TE923,2013-04-15 07:41:00,
2013-04-15 03:46:00,56.1,47.3,29.85,SE,135,0.6,1.2,72,0.00,,,0.00,WUHU216TE923,2013-04-15 07:46:00,
2013-04-15 03:48:00,56.1,47.3,29.85,SE,135,0.6,1.2,72,0.00,,,0.00,WUHU216TE923,2013-04-15 07:48:00,
2013-04-15 03:53:00,56.1,47.3,29.85,ENE,68,0.5,1.2,72,0.00,,,0.00,WUHU216TE923,2013-04-15 07:53:00,
2013-04-15 03:58:00,56.1,47.3,29.85,NE,45,0.4,0.5,72,0.00,,,0.00,WUHU216TE923,2013-04-15 07:58:00,
2013-04-15 04:03:00,56.1,47.3,29.85,SE,135,0.1,0.4,72,0.00,,,0.00,WUHU216TE923,2013-04-15 08:03:00,
2013-04-15 04:08:00,56.1,47.3,29.85,SE,135,0.0,0.1,72,0.00,,,0.00,WUHU216TE923,2013-04-15 08:08:00,
2013-04-15 04:13:00,56.1,47.3,29.85,West,270,0.1,0.1,72,0.00,,,0.00,WUHU216TE923,2013-04-15 08:13:00,
2013-04-15 04:18:00,55.9,47.1,29.85,SE,135,0.1,0.1,72,0.00,,,0.00,WUHU216TE923,2013-04-15 08:18:00,
2013-04-15 04:23:00,55.9,47.1,29.85,SSE,158,0.1,1.0,72,0.00,,,0.00,WUHU216TE923,2013-04-15 08:23:00,
2013-04-15 04:28:00,56.1,47.3,29.85,ENE,68,0.4,1.3,72,0.00,,,0.00,WUHU216TE923,2013-04-15 08:28:00,
2013-04-15 04:33:00,56.1,47.3,29.85,ESE,113,0.5,1.3,72,0.00,,,0.00,WUHU216TE923,2013-04-15 08:33:00,
2013-04-15 04:35:00,56.1,47.3,29.85,ESE,113,0.6,1.1,72,0.00,,,0.00,WUHU216TE923,2013-04-15 08:35:00,
2013-04-15 04:40:00,56.1,47.3,29.85,ESE,113,0.6,1.1,72,0.00,,,0.00,WUHU216TE923,2013-04-15 08:40:00,
2013-04-15 04:45:00,56.1,47.3,29.85,ESE,113,0.2,0.4,72,0.00,,,0.00,WUHU216TE923,2013-04-15 08:45:00,
2013-04-15 04:50:00,56.1,47.3,29.85,NE,45,0.4,0.4,72,0.00,,,0.00,WUHU216TE923,2013-04-15 08:50:00,
2013-04-15 04:55:00,56.1,47.3,29.85,SE,135,0.5,1.5,72,0.00,,,0.00,WUHU216TE923,2013-04-15 08:55:00,
2013-04-15 05:00:00,56.1,47.3,29.85,SE,135,0.2,1.5,72,0.00,,,0.00,WUHU216TE923,2013-04-15 09:00:00,
2013-04-15 05:05:00,56.1,47.3,29.87,ESE,113,0.1,0.2,72,0.00,,,0.00,WUHU216TE923,2013-04-15 09:05:00,
2013-04-15 05:10:00,56.1,47.7,29.87,SE,135,0.0,0.1,73,0.00,,,0.00,WUHU216TE923,2013-04-15 09:10:00,
2013-04-15 05:15:00,56.3,47.9,29.87,South,180,0.1,1.8,73,0.00,,,0.00,WUHU216TE923,2013-04-15 09:15:00,
2013-04-15 05:20:00,56.3,47.9,29.87,South,180,0.1,1.8,73,0.00,,,0.00,WUHU216TE923,2013-04-15 09:20:00,
2013-04-15 05:25:00,56.3,47.9,29.87,SE,135,0.1,2.0,73,0.00,,,0.00,WUHU216TE923,2013-04-15 09:25:00,
2013-04-15 05:30:00,56.5,48.1,29.87,SE,135,0.3,2.0,73,0.00,,,0.00,WUHU216TE923,2013-04-15 09:30:00,
2013-04-15 05:35:00,56.5,48.1,29.87,SE,135,0.3,0.3,73,0.00,,,0.00,WUHU216TE923,2013-04-15 09:35:00,
2013-04-15 05:40:00,56.3,47.9,29.87,ESE,113,0.1,0.3,73,0.00,,,0.00,WUHU216TE923,2013-04-15 09:40:00,
2013-04-15 05:45:00,56.3,47.9,29.88,SE,135,0.2,1.2,73,0.00,,,0.00,WUHU216TE923,2013-04-15 09:45:00,
2013-04-15 05:50:00,56.3,47.9,29.88,SE,135,0.2,1.2,73,0.00,,,0.00,WUHU216TE923,2013-04-15 09:50:00,
2013-04-15 05:55:00,56.3,47.9,29.88,SSE,158,0.1,0.2,73,0.00,,,0.00,WUHU216TE923,2013-04-15 09:55:00,
2013-04-15 06:00:00,56.3,47.9,29.88,SSE,158,0.0,0.1,73,0.00,,,0.00,WUHU216TE923,2013-04-15 10:00:00,
2013-04-15 06:05:00,56.3,47.9,29.87,SSE,158,0.0,0.0,73,0.00,,,0.00,WUHU216TE923,2013-04-15 10:05:00,
2013-04-15 06:10:00,56.3,47.9,29.87,SSE,158,0.0,0.0,73,0.00,,,0.00,WUHU216TE923,2013-04-15 10:10:00,
2013-04-15 06:15:00,56.3,47.9,29.87,SSE,158,0.0,0.0,73,0.00,,,0.00,WUHU216TE923,2013-04-15 10:15:00,
2013-04-15 06:20:00,56.3,47.9,29.87,SSE,158,0.0,0.0,73,0.00,,,0.00,WUHU216TE923,2013-04-15 10:20:00,
2013-04-15 06:25:00,56.3,47.9,29.88,SSE,158,0.0,0.0,73,0.00,,,0.00,WUHU216TE923,2013-04-15 10:25:00,
2013-04-15 06:30:00,56.3,47.9,29.88,SSE,158,0.0,0.0,73,0.00,,,0.00,WUHU216TE923,2013-04-15 10:30:00,
2013-04-15 06:35:00,56.3,47.9,29.88,SSE,158,0.0,0.0,73,0.00,,,0.00,WUHU216TE923,2013-04-15 10:35:00,
2013-04-15 06:40:00,56.1,47.7,29.88,SSE,158,0.0,0.0,73,0.00,,,0.00,WUHU216TE923,2013-04-15 10:40:00,
2013-04-15 06:45:00,56.1,47.7,29.88,SSE,158,0.0,0.0,73,0.00,,,0.00,WUHU216TE923,2013-04-15 10:45:00,
2013-04-15 06:50:00,56.1,47.7,29.88,SE,135,0.1,0.1,73,0.00,,,0.00,WUHU216TE923,2013-04-15 10:50:00,
2013-04-15 06:55:00,56.1,47.7,29.88,ESE,113,0.1,0.1,73,0.00,,,0.00,WUHU216TE923,2013-04-15 10:55:00,
2013-04-15 07:00:00,56.1,48.0,29.88,SE,135,0.3,0.3,74,0.00,,,0.00,WUHU216TE923,2013-04-15 11:00:00,
2013-04-15 07:05:00,56.1,48.0,29.90,SE,135,0.3,0.3,74,0.00,,,0.00,WUHU216TE923,2013-04-15 11:05:00,
2013-04-15 07:10:00,56.1,48.0,29.90,ESE,113,0.0,0.3,74,0.00,,,0.00,WUHU216TE923,2013-04-15 11:10:00,
2013-04-15 07:15:00,56.1,48.0,29.90,ESE,113,0.0,0.0,74,0.00,,,0.00,WUHU216TE923,2013-04-15 11:15:00,
2013-04-15 07:20:00,56.1,48.0,29.90,ESE,113,0.0,0.0,74,0.00,,,0.00,WUHU216TE923,2013-04-15 11:20:00,
2013-04-15 07:25:00,56.3,48.2,29.91,ESE,113,0.0,0.0,74,0.00,,,0.00,WUHU216TE923,2013-04-15 11:25:00,
2013-04-15 07:30:00,56.1,48.0,29.91,ESE,113,0.0,0.0,74,0.00,,,0.00,WUHU216TE923,2013-04-15 11:30:00,
2013-04-15 07:35:00,56.3,48.2,29.91,ESE,113,0.0,0.0,74,0.00,,,0.00,WUHU216TE923,2013-04-15 11:35:00,
2013-04-15 07:40:00,56.3,48.2,29.91,SE,135,0.0,0.0,74,0.00,,,0.00,WUHU216TE923,2013-04-15 11:40:00,
2013-04-15 07:45:00,56.3,48.2,29.92,ESE,113,0.0,0.0,74,0.00,,,0.00,WUHU216TE923,2013-04-15 11:45:00,
2013-04-15 07:50:00,56.5,48.4,29.92,ESE,113,0.0,0.0,74,0.00,,,0.00,WUHU216TE923,2013-04-15 11:50:00,
2013-04-15 07:55:00,56.7,48.6,29.92,ESE,113,0.0,0.0,74,0.00,,,0.00,WUHU216TE923,2013-04-15 11:55:00,
2013-04-15 08:00:00,56.7,48.6,29.92,ESE,113,0.0,0.0,74,0.00,,,0.00,WUHU216TE923,2013-04-15 12:00:00,
2013-04-15 08:05:00,56.8,48.7,29.94,ESE,113,0.2,1.6,74,0.00,,,0.00,WUHU216TE923,2013-04-15 12:05:00,
2013-04-15 08:10:00,56.8,48.7,29.94,ESE,113,0.4,1.6,74,0.00,,,0.00,WUHU216TE923,2013-04-15 12:10:00,
2013-04-15 08:15:00,57.0,48.9,29.94,ESE,113,0.3,0.4,74,0.00,,,0.00,WUHU216TE923,2013-04-15 12:15:00,
2013-04-15 08:20:00,57.2,48.7,29.94,ESE,113,0.0,0.3,73,0.00,,,0.00,WUHU216TE923,2013-04-15 12:20:00,
2013-04-15 08:25:00,57.4,48.9,29.96,ESE,113,0.0,0.0,73,0.00,,,0.00,WUHU216TE923,2013-04-15 12:25:00,
2013-04-15 08:30:00,57.6,49.1,29.96,ESE,113,0.0,0.0,73,0.00,,,0.00,WUHU216TE923,2013-04-15 12:30:00,
2013-04-15 08:35:00,57.7,49.2,29.96,ESE,113,0.1,0.1,73,0.00,,,0.00,WUHU216TE923,2013-04-15 12:35:00,
2013-04-15 08:40:00,57.9,49.0,29.96,East,90,0.1,1.0,72,0.00,,,0.00,WUHU216TE923,2013-04-15 12:40:00,
2013-04-15 08:45:00,58.1,49.2,29.96,SE,135,0.3,1.0,72,0.00,,,0.00,WUHU216TE923,2013-04-15 12:45:00,
2013-04-15 08:50:00,58.5,49.6,29.96,ESE,113,0.5,0.5,72,0.00,,,0.00,WUHU216TE923,2013-04-15 12:50:00,
2013-04-15 08:55:00,58.5,49.3,29.96,SE,135,0.4,0.5,71,0.00,,,0.00,WUHU216TE923,2013-04-15 12:55:00,
2013-04-15 09:01:00,58.8,49.5,29.96,ENE,68,0.3,1.3,71,0.00,,,0.00,WUHU216TE923,2013-04-15 13:01:00,
2013-04-15 09:06:00,59.0,49.4,29.97,East,90,0.5,1.3,70,0.00,,,0.00,WUHU216TE923,2013-04-15 13:06:00,
2013-04-15 09:11:00,59.4,49.4,29.97,ESE,113,0.8,1.2,69,0.00,,,0.00,WUHU216TE923,2013-04-15 13:11:00,
2013-04-15 09:16:00,59.7,49.7,29.97,ESE,113,0.6,0.8,69,0.00,,,0.00,WUHU216TE923,2013-04-15 13:16:00,
2013-04-15 09:21:00,60.4,50.3,29.97,ESE,113,0.4,0.6,69,0.00,,,0.00,WUHU216TE923,2013-04-15 13:21:00,
2013-04-15 09:27:00,61.2,50.3,29.97,ESE,113,0.4,0.4,67,0.00,,,0.00,WUHU216TE923,2013-04-15 13:27:00,
2013-04-15 09:29:00,61.3,49.6,29.97,ESE,113,0.4,0.4,65,0.00,,,0.00,WUHU216TE923,2013-04-15 13:29:00,
2013-04-15 09:32:00,61.3,49.6,29.97,ESE,113,0.4,0.4,65,0.00,,,0.00,WUHU216TE923,2013-04-15 13:32:00,
2013-04-15 09:37:00,61.3,49.6,29.97,ESE,113,0.4,0.4,65,0.00,,,0.00,WUHU216TE923,2013-04-15 13:37:00,
2013-04-15 15:49:00,77.5,45.2,29.95,WSW,248,2.7,2.7,32,0.00,,,0.00,WUHU216TE923,2013-04-15 19:49:00,
2013-04-15 15:50:00,77.5,45.2,29.95,WSW,248,2.7,2.7,32,0.00,,,0.00,WUHU216TE923,2013-04-15 19:50:00,
2013-04-15 15:55:00,77.5,45.2,29.95,WNW,293,2.7,4.2,32,0.00,,,0.00,WUHU216TE923,2013-04-15 19:55:00,
2013-04-15 15:57:00,77.5,45.2,29.95,WNW,293,2.7,4.2,32,0.00,,,0.00,WUHU216TE923,2013-04-15 19:57:00,
2013-04-15 16:02:00,77.4,45.1,29.95,WSW,248,2.7,4.4,32,0.00,,,0.00,WUHU216TE923,2013-04-15 20:02:00,
2013-04-15 16:07:00,77.2,44.1,29.95,WNW,293,3.0,4.4,31,0.00,,,0.00,WUHU216TE923,2013-04-15 20:07:00,
2013-04-15 16:12:00,77.2,44.9,29.95,WSW,248,3.1,3.1,32,0.00,,,0.00,WUHU216TE923,2013-04-15 20:12:00,
2013-04-15 16:17:00,77.2,44.9,29.95,East,90,2.8,3.2,32,0.00,,,0.00,WUHU216TE923,2013-04-15 20:17:00,
2013-04-15 16:22:00,77.2,44.1,29.95,NW,315,2.5,3.2,31,0.00,,,0.00,WUHU216TE923,2013-04-15 20:22:00,
2013-04-15 16:27:00,77.2,44.1,29.94,SE,135,2.3,2.5,31,0.00,,,0.00,WUHU216TE923,2013-04-15 20:27:00,
2013-04-15 16:32:00,77.0,44.7,29.94,WNW,293,2.7,2.7,32,0.00,,,0.00,WUHU216TE923,2013-04-15 20:32:00,
2013-04-15 16:37:00,77.2,44.9,29.94,WSW,248,2.9,3.4,32,0.00,,,0.00,WUHU216TE923,2013-04-15 20:37:00,
2013-04-15 16:42:00,76.8,44.5,29.94,WNW,293,2.9,3.8,32,0.00,,,0.00,WUHU216TE923,2013-04-15 20:42:00,
2013-04-15 16:47:00,76.8,44.5,29.93,NW,315,2.9,3.8,32,0.00,,,0.00,WUHU216TE923,2013-04-15 20:47:00,
2013-04-15 16:52:00,76.6,44.4,29.93,SW,225,2.7,4.1,32,0.00,,,0.00,WUHU216TE923,2013-04-15 20:52:00,
2013-04-15 16:57:00,76.5,45.1,29.93,SSE,158,2.7,4.1,33,0.00,,,0.00,WUHU216TE923,2013-04-15 20:57:00,
2013-04-15 17:02:00,76.6,46.0,29.93,WNW,293,2.3,2.7,34,0.00,,,0.00,WUHU216TE923,2013-04-15 21:02:00,
2013-04-15 17:07:00,76.5,45.9,29.92,WNW,293,2.3,2.3,34,0.00,,,0.00,WUHU216TE923,2013-04-15 21:07:00,
2013-04-15 17:12:00,76.3,45.7,29.92,SW,225,2.6,5.4,34,0.00,,,0.00,WUHU216TE923,2013-04-15 21:12:00,
2013-04-15 17:17:00,76.1,45.5,29.92,SSW,203,2.6,5.4,34,0.00,,,0.00,WUHU216TE923,2013-04-15 21:17:00,
2013-04-15 17:22:00,76.1,45.5,29.92,WNW,293,2.7,4.1,34,0.00,,,0.00,WUHU216TE923,2013-04-15 21:22:00,
2013-04-15 17:27:00,76.3,45.7,29.92,NW,315,2.4,2.9,34,0.00,,,0.00,WUHU216TE923,2013-04-15 21:27:00,
2013-04-15 17:32:00,76.1,46.3,29.92,NW,315,2.4,2.9,35,0.00,,,0.00,WUHU216TE923,2013-04-15 21:32:00,
2013-04-15 17:37:00,75.9,46.1,29.92,NW,315,2.4,2.9,35,0.00,,,0.00,WUHU216TE923,2013-04-15 21:37:00,
2013-04-15 17:42:00,75.9,46.1,29.92,SSE,158,2.4,3.8,35,0.00,,,0.00,WUHU216TE923,2013-04-15 21:42:00,
2013-04-15 17:47:00,75.9,46.1,29.92,SW,225,2.5,3.8,35,0.00,,,0.00,WUHU216TE923,2013-04-15 21:47:00,
2013-04-15 17:52:00,75.6,46.6,29.92,South,180,2.6,5.7,36,0.00,,,0.00,WUHU216TE923,2013-04-15 21:52:00,
2013-04-15 17:57:00,75.6,46.6,29.92,South,180,2.5,5.7,36,0.00,,,0.00,WUHU216TE923,2013-04-15 21:57:00,
2013-04-15 18:02:00,75.4,45.7,29.92,SW,225,2.4,4.1,35,0.00,,,0.00,WUHU216TE923,2013-04-15 22:02:00,
2013-04-15 18:07:00,75.2,46.3,29.93,West,270,2.2,4.1,36,0.00,,,0.00,WUHU216TE923,2013-04-15 22:07:00,
2013-04-15 18:12:00,75.2,46.3,29.93,SW,225,2.0,3.3,36,0.00,,,0.00,WUHU216TE923,2013-04-15 22:12:00,
2013-04-15 18:17:00,75.0,46.1,29.93,South,180,1.9,2.6,36,0.00,,,0.00,WUHU216TE923,2013-04-15 22:17:00,
2013-04-15 18:22:00,75.0,46.8,29.93,South,180,2.0,2.6,37,0.00,,,0.00,WUHU216TE923,2013-04-15 22:22:00,
2013-04-15 18:27:00,75.0,46.8,29.94,SSW,203,2.3,2.5,37,0.00,,,0.00,WUHU216TE923,2013-04-15 22:27:00,
2013-04-15 18:32:00,74.8,46.6,29.94,ESE,113,2.2,3.7,37,0.00,,,0.00,WUHU216TE923,2013-04-15 22:32:00,
2013-04-15 18:37:00,74.8,46.6,29.94,SW,225,2.0,3.7,37,0.00,,,0.00,WUHU216TE923,2013-04-15 22:37:00,
2013-04-15 18:42:00,74.5,46.4,29.94,South,180,2.4,3.7,37,0.00,,,0.00,WUHU216TE923,2013-04-15 22:42:00,
2013-04-15 18:47:00,74.5,46.4,29.95,ESE,113,2.4,3.7,37,0.00,,,0.00,WUHU216TE923,2013-04-15 22:47:00,
2013-04-15 18:52:00,73.9,45.8,29.95,SW,225,2.3,3.3,37,0.00,,,0.00,WUHU216TE923,2013-04-15 22:52:00,
2013-04-15 18:57:00,73.8,45.8,29.95,SW,225,2.4,3.5,37,0.00,,,0.00,WUHU216TE923,2013-04-15 22:57:00,
2013-04-15 19:02:00,73.4,46.1,29.95,South,180,2.4,4.1,38,0.00,,,0.00,WUHU216TE923,2013-04-15 23:02:00,
2013-04-15 19:07:00,73.0,46.5,29.96,SSE,158,2.8,6.0,39,0.00,,,0.00,WUHU216TE923,2013-04-15 23:07:00,
2013-04-15 19:12:00,72.7,46.2,29.96,SSW,203,2.8,6.0,39,0.00,,,0.00,WUHU216TE923,2013-04-15 23:12:00,
2013-04-15 19:17:00,72.1,45.6,29.96,South,180,2.7,5.2,39,0.00,,,0.00,WUHU216TE923,2013-04-15 23:17:00,
2013-04-15 19:22:00,72.0,45.6,29.96,South,180,2.7,4.2,39,0.00,,,0.00,WUHU216TE923,2013-04-15 23:22:00,
2013-04-15 19:27:00,71.8,45.4,29.97,South,180,2.7,4.2,39,0.00,,,0.00,WUHU216TE923,2013-04-15 23:27:00,
2013-04-15 19:32:00,71.4,45.7,29.97,SSW,203,1.9,5.2,40,0.00,,,0.00,WUHU216TE923,2013-04-15 23:32:00,
2013-04-15 19:37:00,71.1,46.1,29.97,SSE,158,2.0,5.2,41,0.00,,,0.00,WUHU216TE923,2013-04-15 23:37:00,
2013-04-15 19:42:00,70.7,46.4,29.97,WSW,248,1.7,2.9,42,0.00,,,0.00,WUHU216TE923,2013-04-15 23:42:00,
2013-04-15 19:47:00,70.5,46.2,29.98,SSW,203,1.9,2.9,42,0.00,,,0.00,WUHU216TE923,2013-04-15 23:47:00,
2013-04-15 19:52:00,70.3,46.0,29.98,South,180,2.3,3.6,42,0.00,,,0.00,WUHU216TE923,2013-04-15 23:52:00,
2013-04-15 19:57:00,70.0,46.4,29.98,SE,135,2.3,3.6,43,0.00,,,0.00,WUHU216TE923,2013-04-15 23:57:00,
2013-04-15 20:02:00,69.6,46.0,29.98,South,180,2.0,2.3,43,0.00,,,0.00,WUHU216TE923,2013-04-16 00:02:00,
2013-04-15 20:07:00,69.4,46.5,29.99,South,180,1.5,2.0,44,0.00,,,0.00,WUHU216TE923,2013-04-16 00:07:00,
2013-04-15 20:12:00,69.1,46.8,29.99,South,180,1.6,4.5,45,0.00,,,0.00,WUHU216TE923,2013-04-16 00:12:00,
2013-04-15 20:17:00,68.7,46.5,29.99,SE,135,1.8,4.5,45,0.00,,,0.00,WUHU216TE923,2013-04-16 00:17:00,
2013-04-15 20:22:00,68.5,46.3,29.99,South,180,1.8,1.8,45,0.00,,,0.00,WUHU216TE923,2013-04-16 00:22:00,
2013-04-15 20:27:00,68.4,46.8,30.01,South,180,2.0,4.2,46,0.00,,,0.00,WUHU216TE923,2013-04-16 00:27:00,
2013-04-15 20:32:00,68.4,46.8,30.01,South,180,2.9,4.2,46,0.00,,,0.00,WUHU216TE923,2013-04-16 00:32:00,
2013-04-15 20:37:00,68.0,46.4,30.01,South,180,3.0,3.8,46,0.00,,,0.00,WUHU216TE923,2013-04-16 00:37:00,
2013-04-15 20:42:00,67.8,46.8,30.01,SW,225,2.3,3.7,47,0.00,,,0.00,WUHU216TE923,2013-04-16 00:42:00,
2013-04-15 20:47:00,67.5,46.6,30.00,SSE,158,1.7,3.2,47,0.00,,,0.00,WUHU216TE923,2013-04-16 00:47:00,
2013-04-15 20:52:00,67.3,46.9,30.00,SSE,158,1.2,3.0,48,0.00,,,0.00,WUHU216TE923,2013-04-16 00:52:00,
2013-04-15 20:57:00,67.1,46.8,30.00,SSE,158,1.2,3.0,48,0.00,,,0.00,WUHU216TE923,2013-04-16 00:57:00,
2013-04-15 21:02:00,66.9,46.6,30.00,South,180,1.3,3.2,48,0.00,,,0.00,WUHU216TE923,2013-04-16 01:02:00,
2013-04-15 21:07:00,66.9,46.6,30.02,South,180,1.3,3.2,48,0.00,,,0.00,WUHU216TE923,2013-04-16 01:07:00,
2013-04-15 21:12:00,66.6,46.9,30.02,ESE,113,1.3,1.3,49,0.00,,,0.00,WUHU216TE923,2013-04-16 01:12:00,
2013-04-15 21:17:00,66.6,46.9,30.02,South,180,1.2,1.6,49,0.00,,,0.00,WUHU216TE923,2013-04-16 01:17:00,
2013-04-15 21:22:00,66.4,46.7,30.02,South,180,1.3,2.2,49,0.00,,,0.00,WUHU216TE923,2013-04-16 01:22:00,
2013-04-15 21:27:00,66.4,46.7,30.03,WNW,293,1.7,2.9,49,0.00,,,0.00,WUHU216TE923,2013-04-16 01:27:00,
2013-04-15 21:32:00,66.2,46.5,30.03,SSE,158,1.8,2.9,49,0.00,,,0.00,WUHU216TE923,2013-04-16 01:32:00,
2013-04-15 21:37:00,66.0,46.9,30.03,SSW,203,1.3,1.8,50,0.00,,,0.00,WUHU216TE923,2013-04-16 01:37:00,
2013-04-15 21:42:00,65.8,46.7,30.03,South,180,0.5,1.3,50,0.00,,,0.00,WUHU216TE923,2013-04-16 01:42:00,
2013-04-15 21:47:00,65.7,46.6,30.03,SW,225,0.4,1.7,50,0.00,,,0.00,WUHU216TE923,2013-04-16 01:47:00,
2013-04-15 21:52:00,65.7,46.6,30.03,South,180,0.6,2.4,50,0.00,,,0.00,WUHU216TE923,2013-04-16 01:52:00,
2013-04-15 21:57:00,65.7,46.6,30.03,SSW,203,1.2,2.4,50,0.00,,,0.00,WUHU216TE923,2013-04-16 01:57:00,
2013-04-15 22:02:00,65.7,46.6,30.03,SSW,203,1.2,1.5,50,0.00,,,0.00,WUHU216TE923,2013-04-16 02:02:00,